Главная страница
METAR-TAF:

METAR-TAF

Аэропорты :

Франклин округ, Вермонт, США

широта: 44-56-25N, долгота: 073-05-51W, высота над уровнем моря: 69 м

Текущие метеонаблюдения

Эта сводка был подготовлена 14 минут назад, в 01:35 UTC
Штиль
Температура 21°C
Влажность 94%
Давление 1009 hPa
Видимость: 16.1 км
ясное небо

METAR: KFSO 150135Z AUTO 00000KT 10SM CLR 21/20 A2979 RMK AO2 T02100199

Время: 21:49 (01:49 UTC)


TAF: отсутствует

Метеонаблюдения и прогнозы для более 4000 аэропортов (сводки METAR и TAF).

Имеющиеся станции представлены на карте желтыми и красными точками.

Чтобы увидеть название станции, наведите на нее мышь.

Затем щелкните, чтобы увидеть метеонаблюдения и метеопрогнозы.

Управление картой: чтобы увеличить масштаб, щелкните зеленые кнопки с черным крестиком; чтобы уменьшить масштаб, щелкните зеленую кнопку с тире; для просмотра соседних карт щелкайте зеленые стрелки.


METAR-TAF: